#timestamp,LO_Frequency,Hit,StdDev 
1459735215.2,286047004.9,N
1459735235.9,286047006.1,N
1459735255.7,286047004.8,N
1459735275.5,286047005.0,N
1459735295.4,286047005.4,N
1459735315.2,286047005.2,N
1459735335.0,286047004.2,N
1459735335.9,286047004.2,N
1459735355.8,286047003.1,N
1459735375.6,286047003.0,N
1459735395.4,286047005.4,N
1459735415.3,286047003.6,N
1459735435.1,286047004.2,N
1459735455.8,286047003.4,N
1459735475.7,286047006.0,N
1459735495.5,286047005.9,N
1459735515.3,286047004.1,N
1459735535.2,286047000.3,N
1459735555.9,286047001.3,N
1459735575.7,286047001.3,N
1459735595.6,286047001.5,N
1459735615.4,286047001.9,N
1459735635.2,286047002.4,N
1459735655.0,286047001.1,N
1459735655.9,286047001.1,N
1459735675.8,286047002.2,N
1459735695.6,286047001.9,N
1459735715.4,286047001.5,N
1459735735.3,286047001.9,N
1459735755.1,286047006.0,Y
1459735775.8,286047002.1,P
1459735795.7,286047000.5,N
1459735815.5,286047000.2,N
1459735835.3,286046998.6,N
1459735855.2,286046997.7,N
1459735875.9,286046998.2,N
1459735895.7,286046998.5,N
1459735915.6,286047001.0,N
1459735935.4,286046999.3,N
1459735955.2,286046996.6,N
1459735975.0,286047001.1,N
1459735976.0,286047001.1,N
1459735995.8,286047001.0,N
1459736015.6,286046999.9,N
1459736035.4,286047004.2,N
1459736055.3,286047002.1,N
1459736075.1,286047002.8,N
1459736095.8,286047000.9,N
1459736115.7,286046999.4,N
1459736135.5,286046998.3,N
1459736155.3,286047000.4,N
1459736175.2,286046998.2,N
1459736195.9,286046998.7,N
1459736215.7,286046999.4,N
1459736235.6,286047000.0,N
1459736255.4,286047000.4,N
1459736275.2,286046999.5,N
1459736295.0,286046999.0,N
1459736296.0,286046999.0,N
1459736315.8,286046997.3,N
1459736335.6,286046995.6,N
1459736355.4,286046995.0,N
1459736375.3,286046995.5,N
1459736395.1,286046995.1,N
1459736415.8,286046995.8,N
1459736435.7,286046996.4,N
1459736455.5,286046995.1,N
1459736475.3,286046997.4,N
1459736495.2,286046999.5,N
1459736515.9,286047000.8,N
1459736535.7,286046998.8,N
1459736555.6,286046999.5,N
1459736575.4,286046998.4,N
1459736595.2,286046999.2,N
1459736615.0,286046996.7,N
1459736616.0,286046996.7,N
1459736635.8,286046997.1,N
1459736655.6,286046995.3,N
1459736675.4,286046997.6,N
1459736695.3,286046997.6,N
1459736715.1,286046994.9,N
1459736735.8,286046995.2,N
1459736755.7,286046995.5,N
1459736775.5,286046997.4,N
1459736795.3,286046994.9,N
1459736815.2,286046997.5,N
1459736835.9,286046997.2,N
1459736855.7,286047000.9,N
1459736875.6,286047000.5,N
1459736895.4,286046999.6,N
1459736915.2,286047000.4,N
1459736935.1,286047001.9,N
1459736936.0,286047001.9,N
1459736955.8,286047000.3,N
1459736975.6,286046998.8,N
1459736995.5,286046996.3,N
1459737015.3,286046994.5,N
1459737035.1,286046994.1,N
1459737055.8,286046994.0,N
1459737075.7,286046993.4,N
1459737095.5,286046995.1,N
1459737115.3,286046998.4,N
1459737135.2,286046999.5,N
1459737155.9,286046996.5,N
1459737175.7,286046996.6,N
1459737195.6,286046997.4,N
1459737215.4,286046999.6,N
1459737235.2,286046998.3,N
1459737255.1,286046998.3,N
1459737256.0,286046998.3,N
1459737275.8,286047000.2,N
1459737295.6,286047000.0,N
1459737315.5,286047000.8,N
1459737335.3,286046997.5,N
1459737355.1,286046995.6,N
1459737375.8,286046997.4,N
1459737395.7,286046996.1,N
1459737415.5,286046993.7,N
1459737435.3,286046993.8,N
1459737455.2,286046996.0,N
1459737475.0,286046998.7,N
1459737475.9,286046998.7,N
1459737495.7,286046997.0,N
1459737515.6,286046997.9,N
1459737535.4,286046995.5,N
1459737555.2,286046997.3,N
1459737575.1,286046997.4,N
1459737576.0,286046997.4,N
1459737595.8,286046995.3,N
1459737615.6,286046995.6,N
1459737635.5,286046995.6,N
1459737655.3,286046998.0,N
1459737675.1,286046993.9,Y
1459737695.9,286046994.1,P
1459737715.7,286046995.9,N
1459737735.5,286046995.8,P
1459737755.4,286046999.5,N
1459737775.2,286047000.4,N
1459737795.0,286047000.6,N
1459737795.9,286047000.6,N
1459737815.7,286047000.0,N
1459737835.6,286047001.2,N
1459737855.4,286046999.6,N
1459737875.2,286046998.4,N
1459737895.1,286046999.0,N
1459737896.0,286046999.0,N
1459737915.8,286046999.5,N
1459737935.6,286046998.5,N
1459737955.5,286046995.1,N
1459737975.3,286046997.3,N
1459737995.1,286046998.6,N
1459738015.9,286047000.8,N
1459738035.7,286046998.6,N
1459738055.5,286046998.1,N
1459738075.4,286047002.2,N
1459738095.2,286046998.2,N
1459738115.0,286047000.4,N
1459738115.9,286047000.4,N
1459738135.7,286047000.9,N
1459738155.6,286046998.8,N
1459738175.4,286046998.2,N
1459738195.2,286046999.6,N
1459738215.1,286046995.7,N
1459738216.0,286046995.7,N
1459738235.8,286046997.4,N
1459738255.6,286046999.4,N
1459738275.5,286046999.2,N
1459738295.3,286046998.5,N
1459738315.1,286047002.0,N
1459738335.9,286046998.8,N
1459738355.7,286046999.2,N
1459738375.5,286047001.7,N
1459738395.4,286047001.4,N
1459738415.2,286047003.7,N
1459738435.0,286046999.9,N
1459738435.9,286046999.9,N
1459738455.8,286047002.4,N
1459738475.6,286047000.3,N
1459738495.4,286047001.1,N
1459738515.2,286047001.0,N
1459738535.1,286046999.8,N
1459738536.0,286046999.8,N
1459738555.8,286047000.8,N
1459738575.6,286047001.0,N
1459738595.5,286047000.3,N
1459738615.3,286047003.8,N
1459738635.1,286047003.0,N
1459738655.9,286047003.9,N
1459738675.7,286047001.4,N
1459738695.5,286047005.9,N
1459738715.4,286047003.5,N
1459738735.2,286047003.6,N
1459738755.0,286047002.5,N
1459738755.9,286047002.5,N
1459738775.8,286047000.3,N
1459738795.6,286047000.3,N
